Regional Weather Roundup
Issued by NWS Sterling, VA

Home | Current Version | Previous Version | Graphics & Text | Print | Product List | Glossary On
Versions: 1 2 3 4 5 6 7 8 9 10 11 12 13 14 15 16 17 18 19 20 21 22 23 24 25 26 27 28 29 30 31 32 33 34 35 36 37 38 39 40 41 42 43 44 45 46 47 48 49 50
041
ASUS41 KLWX 191710
RWRLWX

REGIONAL WEATHER ROUNDUP
NATIONAL WEATHER SERVICE BALTIMORE MD/WASHINGTON DC
1200 PM EST THU JAN 19 2017

Note: "FAIR" indicates few or no clouds below 12,000 feet
with no significant weather and/or obstructions to visibility.
 TC=TEMPERATURE CELSIUS

 * =Non NWS site. Station does not report precipitation (e.g. rain,
    snow, etc.), thunder, or fog.

DCZ001-MDZ009-015-VAZ040>042-051-053>054-191800-
WASHINGTON METRO

CITY           SKY/WX    TMP DP  RH WIND       PRES   REMARKS
WASHINGTON NAT CLOUDY    50  37  61 VRB3      30.08F
DULLES         CLOUDY    49  36  61 NW7       30.08F
ANDREWS AFB    CLOUDY    48  36  61 NW7       30.06F
FT BELVOIR     CLOUDY    50  36  58 VRB5      30.08F
QUANTICO       PTSUNNY   49  39  68 W6        30.10F
COLLEGE PARK*  MOSUNNY   46  34  61 NW6       30.07F
LEESBURG*      CLOUDY    50  39  66 NW7       30.08F
MANASSAS*      SUNNY    N/A N/A N/A CALM      30.10F
GAITHERSBURG*  CLOUDY    46  34  61 NW9       30.10F

$$

MDZ006>007-011-014-191800-
BALTIMORE METRO

CITY           SKY/WX    TMP DP  RH WIND       PRES   REMARKS
BWI AIRPORT    PTSUNNY   48  36  63 W7        30.07F
MD SCIENCE CTR   N/A     50  33  52 MISG      30.08F
MARTIN STATE   PTSUNNY   48  39  71 NW6       30.09F
ANNAPOLIS      CLOUDY    48  36  63 NW7       30.07F
FORT MEADE*    PTSUNNY   48  36  61 NW3       30.09F

$$

MDZ012-015-019>023-191800-
MARYLAND EASTERN SHORE

CITY           SKY/WX    TMP DP  RH WIND       PRES   REMARKS
OCEAN CITY     CLOUDY    48  38  68 N3        30.07F
SALISBURY      CLOUDY    50  37  61 NW9       30.06F
BAY BRIDGE AP* PTSUNNY   46  36  66 NW7       30.07F
CAMBRIDGE*     MOSUNNY   46  36  66 NW7       30.07F
EASTON*        PTSUNNY   50  36  57 NW9       30.11F

$$

MDZ017>025-191800-
SOUTHERN MARYLAND

CITY           SKY/WX    TMP DP  RH WIND       PRES   REMARKS
PATUXENT RIVER CLOUDY    48  36  63 NW6       30.08F
ST INIGOES     PTSUNNY   48  38  68 SW7       30.08F
LEONARDTOWN*   CLOUDY    48  36  61 W7        30.09F

$$

MDZ003>005-191800-
NORTH CENTRAL MARYLAND

CITY           SKY/WX    TMP DP  RH WIND       PRES   REMARKS
FREDERICK*     PTSUNNY   46  37  71 W10       30.11F
HAGERSTOWN APT CLOUDY    46  34  62 NW8       30.07F
WESTMINSTER*   CLOUDY    45  36  70 W7        30.05

$$

MDZ501>502-191800-
WESTERN MARYLAND

CITY           SKY/WX    TMP DP  RH WIND       PRES   REMARKS
OAKLAND*       CLOUDY    32  32 100 SW3       30.03S FOG
CUMBERLAND*    CLOUDY    46  36  66 S5        30.12F

$$

VAZ025>031-191800-
SHENANDOAH VALLEY

CITY           SKY/WX    TMP DP  RH WIND       PRES   REMARKS
WINCHESTER*    CLOUDY    45  36  70 CALM      30.07F
FRONT ROYAL*   CLOUDY    45  36  70 CALM      30.07F
LURAY*         CLOUDY    45  41  87 SW3       30.07F
NEW MARKET*    CLOUDY    43  36  75 SW5       30.08F
STAUNTON*      CLOUDY    46  38  73 CALM      30.09F
WAYNESBORO*    CLOUDY    50  37  62 SW6       30.07F

$$

WVZ021-048>050-054>055-191800-
EASTERN WEST VIRGINIA PANHANDLE

CITY           SKY/WX    TMP DP  RH WIND       PRES   REMARKS
MARTINSBURG    CLOUDY    47  35  63 VRB3      30.07F
PETERSBURG*    CLOUDY    42  37  81 CALM      30.10F

$$

VAZ036>039-050-191800-
CENTRAL FOOTHILLS

CITY           SKY/WX    TMP DP  RH WIND       PRES   REMARKS
CHARLOTTESVILL MOSUNNY   52  38  58 S8        30.08F
CULPEPER*      CLOUDY    49  39  69 SW7       30.10F
ORANGE*          N/A     50  37  62 S7        30.10F
GORDONSVILLE*  PTSUNNY   49  38  66 S6        30.08F
WARRENTON*     CLOUDY    49  34  56 CALM      30.08F

$$

VAZ055>057-191800-
NORTH AND CENTRAL PIEDMONT

CITY           SKY/WX    TMP DP  RH WIND       PRES   REMARKS
FREDERICKSBRG* PTSUNNY   50  39  67 CALM      30.09F
STAFFORD*      PTSUNNY   48  39  69 CALM      30.13F

$$

NCZ024-NYZ072-PAZ021-071-VAZ022-071-191800-
OTHER REGIONAL OBSERVATIONS

CITY           SKY/WX    TMP DP  RH WIND       PRES   REMARKS
NEW YORK CITY  MOSUNNY   47  34  60 W6        30.03F
PHILADELPHIA   PTSUNNY   48  35  60 NW10      30.05F
PITTSBURGH     CLOUDY    38  34  85 CALM      30.06F
ROANOKE        SUNNY     53  39  59 W5        30.08F
RICHMOND       CLOUDY    51  37  58 CALM      30.10F
RALEIGH        MOSUNNY   56  39  53 CALM      30.09F

$$

ANZ530>537-191800-
MARINE OBSERVATIONS

STATION/POSITION TIME  TEMP    WIND        PRES
                       AIR SEA DIR/SP/G
                 (UTC) (F)     (DEG/KT/KT) (MB)
THOMAS PT LIGHT  1700   46 39  330/  4/  4   N/A
BALT KEY BRIDGE  1642   47     320/  2/  2 1018.6F
COVE POINT       1642   44      40/  5/  6 1019.4F
LEWISETTA        1642   47 43  320/  6/  7 1019.0F
SOLOMONS ISLAND  1648      41  290/  4/  5   N/A
PINEY POINT      1648          280/  5/  6   N/A

$$





USA.gov is the U.S. government's official web portal to all federal, state and local government web resources and services.